Weather in Komsomolskiy

Russia / Tula Oblast     53°57′19″N   37°40′12″E
temp.,
°C
wind,
m/s
gust,
m/s
humid.,
%
clouds,
%
prec.,
mm/h
press.,
hPa
HPBL,
m
13 may, thu
thu1300:00+6se349622 0.0 101976
03:00+6e499655 0.0 1019164
06:00+7e6139445 0.0 1018346
09:00+11ese61485100 0.0 1017656
12:00+12se5982100 0.1 1017912
15:00+11ese51292100 3.9 1016672
18:00+13s598433 0.4 1015873
21:00+10sse349242 0.4 101551
14 may, fri
fri1400:00+9sse349234 0.0 101653
03:00+8sse339376 0.0 101734
06:00+10se349268 0.0 101797
09:00+15ese467893 0.0 1016371
12:00+19se687199 0.0 10151046
15:00+21se7116848 0.6 10131479
18:00+19sse8157899 3.0 1011777
21:00+15se389399 3.3 1011160
15 may, sat
sat1500:00+14sse3995100 0.9 1011181
03:00+15se498892 2.7 1010192
06:00+14se5109289 0.2 1010261
09:00+18sse4685100 0.4 1010564
12:00+21ssw686499 0.5 10091191
15:00+21ssw7106393 1.3 10101601
18:00+18sw712770 0.6 10101117
21:00+14ssw513860 0.6 1011520
16 may, sun
sun1600:00+12ssw411944 0.0 1012306
03:00+11ssw389582 0.0 1013181
06:00+12ssw499272 0.0 1014294
09:00+16sw57750 0.0 1014674
12:00+19sw68620 0.0 10141333
15:00+20sw69573 0.1 10141806
18:00+19wsw46690 0.1 1014803
21:00+14wsw23840 0.1 101526
17 may, mon
mon1700:00+13nne0186100 0.0 101510
03:00+12ene1287100 0.0 101611
06:00+13e358680 0.0 101594
09:00+19e467252 0.0 1015436
12:00+22e676387 0.0 1014868
15:00+24ese6863100 0.0 10131109
18:00+23ese587211 0.5 1012447
21:00+17ese4128423 0.6 1012209